Weather History for Custer, SD

Change the Weather History Date:

Saturday, June 15, 2013

  Actual Average Record
Temperature  
Mean Temperature 60 °F 58 °F  
Max Temperature 71 °F 70 °F 92 °F (1956)
Min Temperature 48 °F 46 °F 27 °F (1969)
Degree Days  
Heating Degree Days 5 7  
Month to date heating degree days 146 145  
Since 1 June heating degree days 146 145  
Since 1 July heating degree days 8226 8314  
Cooling Degree Days 0 1  
Month to date cooling degree days 0 3  
Year to date cooling degree days 2 4  
Since 1 June cooling degree days 0 3  
Growing Degree Days 11 (Base 50)    
Moisture  
Dew Point 40 °F    
Average Humidity 51    
Maximum Humidity 74    
Minimum Humidity 28    
Precipitation  
Precipitation 0.00 in 0.11 in 3.12 in (1976)
Month to date precipitation 0.75 1.79  
Year to date precipitation 7.28 8.90  
Sea Level Pressure  
Sea Level Pressure 29.97 in    
Wind  
Wind Speed 4 mph (East)    
Max Wind Speed 13 mph    
Max Gust Speed 18 mph    
Visibility 10 miles    
Events      
T = Trace of Precipitation, MM = Missing Value Source: NWS Daily Summary

Daily Weather History Graph

Daily Weather History Graph

Search for Another Location

Airport:

Trip Planner

Search our weather history database for the weather conditions in past years. The results will help you decide how hot, cold, wet, or windy it might be!

Date:

Astronomy

Jun. 15, 2013 Rise Set
Actual Time 5:12 AM MDT 8:38 PM MDT
Civil Twilight 4:35 AM MDT 9:14 PM MDT
Nautical Twilight 3:48 AM MDT 10:01 PM MDT
Astronomical Twilight 2:49 AM MDT 11:01 PM MDT
Moon 12:00 PM MDT (6/15) 12:04 AM MDT (6/15)
Length of Visible Light 16h 38m
Length of Day
15h 26m
Waxing Crescent, 40% of the Moon is Illuminated
Jun 15
Waxing Crescent
Jun 16
First Quarter
Jun 23
Full
Jun 29
Last Quarter
Jul 8
New

Hourly Weather History & Observations

Time (MDT) Temp. Dew Point Humidity Pressure Visibility Wind Dir Wind Speed Gust Speed Precip Events Conditions
12:53 AM 53.1 °F 42.1 °F 66% 29.96 in 10.0 mi NE 8.1 mph - N/A   Scattered Clouds
1:53 AM 53.1 °F 41.0 °F 64% 29.96 in 10.0 mi NE 8.1 mph - N/A   Overcast
2:53 AM 52.0 °F 39.9 °F 63% 29.94 in 10.0 mi NNE 4.6 mph - N/A   Scattered Clouds
3:53 AM 53.1 °F 39.0 °F 59% 29.95 in 10.0 mi North 4.6 mph - N/A   Overcast
4:53 AM 53.1 °F 37.0 °F 55% 29.95 in 10.0 mi North 5.8 mph - N/A   Overcast
5:53 AM 53.1 °F 37.0 °F 55% 29.97 in 10.0 mi NNW 3.5 mph - N/A   Overcast
6:53 AM 55.9 °F 39.0 °F 53% 29.98 in 10.0 mi Calm Calm - N/A   Mostly Cloudy
7:53 AM 55.9 °F 37.0 °F 49% 30.01 in 10.0 mi Calm Calm - N/A   Overcast
8:53 AM 57.9 °F 39.9 °F 51% 30.02 in 10.0 mi Calm Calm - N/A   Overcast
9:53 AM 61.0 °F 42.1 °F 50% 30.00 in 10.0 mi ESE 4.6 mph - N/A   Mostly Cloudy
10:53 AM 63.0 °F 43.0 °F 48% 30.00 in 10.0 mi Variable 6.9 mph - N/A   Scattered Clouds
11:53 AM 62.1 °F 41.0 °F 46% 30.00 in 10.0 mi SSW 8.1 mph - N/A   Mostly Cloudy
12:53 PM 66.0 °F 43.0 °F 43% 29.99 in 10.0 mi SSW 6.9 mph - N/A   Mostly Cloudy
1:53 PM 66.9 °F 39.9 °F 37% 29.97 in 10.0 mi Variable 6.9 mph - N/A   Mostly Cloudy
2:53 PM 69.1 °F 39.9 °F 35% 29.96 in 10.0 mi Calm Calm - N/A   Mostly Cloudy
3:53 PM 68.0 °F 37.9 °F 33% 29.94 in 10.0 mi Variable 4.6 mph - N/A   Scattered Clouds
4:53 PM 69.1 °F 37.0 °F 31% 29.94 in 10.0 mi South 4.6 mph - N/A   Mostly Cloudy
5:53 PM 70.0 °F 36.0 °F 29% 29.93 in 10.0 mi Variable 5.8 mph - N/A   Partly Cloudy
6:53 PM 69.1 °F 37.0 °F 31% 29.93 in 10.0 mi SW 3.5 mph - N/A   Clear
7:53 PM 64.0 °F 43.0 °F 46% 29.95 in 10.0 mi SE 6.9 mph - N/A   Clear
8:53 PM 60.1 °F 43.0 °F 53% 29.96 in 10.0 mi East 3.5 mph - N/A   Clear
9:53 PM 57.0 °F 44.1 °F 62% 29.98 in 10.0 mi ESE 3.5 mph - N/A   Clear
10:53 PM 52.0 °F 43.0 °F 71% 29.99 in 10.0 mi Calm Calm - N/A   Clear
11:53 PM 50.0 °F 43.0 °F 77% 30.00 in 10.0 mi Calm Calm - N/A   Clear